TimeICT,TemperatureF,Dew PointF,Humidity,Sea Level PressureIn,VisibilityMPH,Wind Direction,Wind SpeedMPH,Gust SpeedMPH,PrecipitationIn,Events,Conditions,WindDirDegrees,DateUTC
12:00 AM,77.0,64.4,65,29.98,4.3,ENE,12.7,-,N/A,,Mostly Cloudy,70,2014-01-19 17:00:00
12:30 AM,75.2,64.4,69,29.98,4.3,ENE,11.5,-,N/A,,Mostly Cloudy,70,2014-01-19 17:30:00
1:00 AM,77,66,62,29.95,5,ENE,4.6,,,,Mist,70,2014-01-19 18:00:00
1:00 AM,75.2,62.6,65,29.98,4.3,ENE,11.5,-,N/A,,Mostly Cloudy,60,2014-01-19 18:00:00
1:30 AM,75.2,62.6,65,29.98,4.3,ENE,13.8,-,N/A,,Mostly Cloudy,70,2014-01-19 18:30:00
2:00 AM,75.2,62.6,65,29.95,4.3,ENE,10.4,-,N/A,,Mostly Cloudy,70,2014-01-19 19:00:00
2:30 AM,75.2,62.6,65,29.95,4.3,ENE,13.8,-,N/A,,Mostly Cloudy,70,2014-01-19 19:30:00
3:00 AM,75.2,62.6,65,29.95,4.3,ENE,16.1,-,N/A,,Mostly Cloudy,70,2014-01-19 20:00:00
4:00 AM,76,67,67,29.91,5,ENE,4.6,,,,Mist,70,2014-01-19 21:00:00
4:00 AM,75.2,64.4,69,29.95,4.3,ENE,13.8,-,N/A,,Mostly Cloudy,70,2014-01-19 21:00:00
5:00 AM,75.2,64.4,69,29.95,4.3,ENE,15.0,-,N/A,,Partly Cloudy,70,2014-01-19 22:00:00
5:30 AM,75.2,64.4,69,29.95,4.3,ENE,15.0,-,N/A,,Mostly Cloudy,70,2014-01-19 22:30:00
6:00 AM,75.2,64.4,69,29.95,4.3,ENE,17.3,-,N/A,,Mostly Cloudy,70,2014-01-19 23:00:00
6:30 AM,75.2,64.4,69,29.95,4.3,ENE,13.8,-,N/A,,Mostly Cloudy,70,2014-01-19 23:30:00
7:00 AM,75,68,74,29.95,4,ENE,5.8,,,,Mist,70,2014-01-20 00:00:00
7:00 AM,75.2,64.4,69,29.98,4.3,ENE,13.8,-,N/A,,Mostly Cloudy,70,2014-01-20 00:00:00
8:00 AM,75.2,64.4,69,29.98,4.3,ENE,13.8,-,N/A,,Mostly Cloudy,70,2014-01-20 01:00:00
8:30 AM,77.0,64.4,65,30.01,5.0,ENE,16.1,-,N/A,,Mostly Cloudy,70,2014-01-20 01:30:00
9:00 AM,77.0,64.4,65,30.01,5.0,ENE,17.3,-,N/A,,Mostly Cloudy,70,2014-01-20 02:00:00
9:30 AM,78.8,64.4,61,30.01,5.0,East,18.4,-,N/A,,Mostly Cloudy,80,2014-01-20 02:30:00
10:00 AM,81,67,54,30.00,6,ENE,11.5,,,,Scattered Clouds,70,2014-01-20 03:00:00
10:00 AM,80.6,64.4,58,30.01,5.0,East,17.3,-,N/A,,Mostly Cloudy,80,2014-01-20 03:00:00
10:30 AM,80.6,64.4,58,30.01,5.0,East,17.3,-,N/A,,Mostly Cloudy,80,2014-01-20 03:30:00
11:00 AM,82.4,64.4,54,30.01,5.0,ENE,15.0,-,N/A,,Mostly Cloudy,60,2014-01-20 04:00:00
11:30 AM,82.4,62.6,51,29.98,5.0,ENE,15.0,-,N/A,,Mostly Cloudy,70,2014-01-20 04:30:00
12:00 PM,84.2,64.4,51,29.98,5.0,East,16.1,-,N/A,,Mostly Cloudy,80,2014-01-20 05:00:00
12:30 PM,84.2,64.4,51,29.95,5.0,ENE,17.3,-,N/A,,Mostly Cloudy,70,2014-01-20 05:30:00
1:00 PM,85,67,46,29.93,6,ENE,9.2,,,,Scattered Clouds,70,2014-01-20 06:00:00
1:00 PM,84.2,62.6,48,29.95,5.0,East,13.8,-,N/A,,Mostly Cloudy,80,2014-01-20 06:00:00
1:30 PM,86.0,62.6,45,29.92,5.0,ENE,13.8,-,N/A,,Mostly Cloudy,70,2014-01-20 06:30:00
2:00 PM,86.0,62.6,45,29.89,5.0,ENE,13.8,-,N/A,,Mostly Cloudy,70,2014-01-20 07:00:00
2:30 PM,86.0,62.6,45,29.89,5.0,ENE,13.8,-,N/A,,Mostly Cloudy,60,2014-01-20 07:30:00
3:00 PM,86.0,62.6,45,29.89,5.0,ENE,15.0,-,N/A,,Mostly Cloudy,60,2014-01-20 08:00:00
3:30 PM,87.8,62.6,43,29.86,6.2,ENE,13.8,-,N/A,,Scattered Clouds,60,2014-01-20 08:30:00
4:00 PM,87,64,37,29.85,6,ENE,6.9,,,,Scattered Clouds,70,2014-01-20 09:00:00
4:00 PM,87.8,62.6,43,29.89,6.2,ENE,11.5,-,N/A,,Scattered Clouds,60,2014-01-20 09:00:00
4:30 PM,86.0,64.4,48,29.89,6.2,ENE,6.9,-,N/A,,Scattered Clouds,60,2014-01-20 09:30:00
5:00 PM,84.2,68.0,58,29.89,6.2,NNW,5.8,-,N/A,,Mostly Cloudy,330,2014-01-20 10:00:00
5:30 PM,82.4,68.0,62,29.89,6.2,NNW,5.8,-,N/A,,Mostly Cloudy,340,2014-01-20 10:30:00
6:00 PM,82.4,68.0,62,29.92,6.2,NNE,5.8,-,N/A,,Mostly Cloudy,30,2014-01-20 11:00:00
6:30 PM,82.4,62.6,51,29.92,6.2,NNW,3.5,-,N/A,,Mostly Cloudy,330,2014-01-20 11:30:00
7:00 PM,83,70,56,29.91,6,Calm,Calm,,,,Scattered Clouds,,2014-01-20 12:00:00
7:00 PM,78.8,62.6,57,29.92,6.2,Calm,Calm,-,N/A,,Mostly Cloudy,0,2014-01-20 12:00:00
7:30 PM,78.8,62.6,57,29.95,6.2,Calm,Calm,-,N/A,,Mostly Cloudy,0,2014-01-20 12:30:00
8:00 PM,75.2,64.4,69,29.95,6.2,NE,3.5,-,N/A,,Scattered Clouds,50,2014-01-20 13:00:00
8:30 PM,77.0,62.6,61,29.98,5.6,ENE,3.5,-,N/A,,Scattered Clouds,70,2014-01-20 13:30:00
9:00 PM,77.0,62.6,61,29.98,5.6,ENE,5.8,-,N/A,,Scattered Clouds,70,2014-01-20 14:00:00
9:30 PM,77.0,62.6,61,29.98,5.6,ENE,9.2,-,N/A,,Scattered Clouds,70,2014-01-20 14:30:00
10:00 PM,78,67,60,29.96,6,ENE,5.8,,,,Scattered Clouds,70,2014-01-20 15:00:00
10:00 PM,77.0,64.4,65,29.98,5.6,ENE,10.4,-,N/A,,Scattered Clouds,70,2014-01-20 15:00:00
10:30 PM,75.2,64.4,69,29.98,5.6,ENE,9.2,-,N/A,,Scattered Clouds,70,2014-01-20 15:30:00
11:00 PM,77.0,64.4,65,29.98,5.6,ENE,10.4,-,N/A,,Scattered Clouds,70,2014-01-20 16:00:00
11:30 PM,75.2,64.4,69,29.98,5.6,ENE,11.5,-,N/A,,Scattered Clouds,70,2014-01-20 16:30:00